Regional Weather Roundup
Issued by NWS

Home | Current Version | Previous Version | Text Only | Print | Product List | Glossary Off
Versions: 1 2 3 4 5 6 7 8 9 10 11 12 13 14 15 16 17 18 19 20 21 22 23 24 25 26 27 28 29 30 31 32 33 34 35 36 37 38 39 40 41 42 43 44 45 46 47 48 49 50

000
ASUS43 KMKX 180521
RWRWI

WISCONSIN REGIONAL WEATHER ROUNDUP
NATIONAL WEATHER SERVICE MILWAUKEE/SULLIVAN WI
1200 AM CDT FRI APR 18 2014

NOTE: "FAIR" INDICATES FEW OR NO CLOUDS BELOW 12,000 FEET WITH NO
SIGNIFICANT WEATHER AND/OR OBSTRUCTIONS TO VISIBILITY.

WIZ001-002-006>008-014>016-023>028-180600-
NORTHWEST WISCONSIN

CITY           SKY/WX    TMP DP  RH WIND       PRES   REMARKS
SUPERIOR ARPT  CLEAR     26  21  83 CALM      30.33R
ASHLAND        CLEAR     28  25  88 CALM      30.32S
HAYWARD        FOG       22  19  89 CALM      30.30S VSB 1/4
SIREN          CLEAR     24  23  93 CALM      30.32S
RICE LAKE        N/A     26  25  96 CALM      30.32S FOG
LADYSMITH      CLEAR     29  26  87 CALM      30.31S
EAU CLAIRE     CLEAR     27  25  92 CALM      30.31S
MENOMONIE      CLEAR     30  28  90 CALM      30.32R
NEW RICHMOND   CLEAR     28  28  99 CALM      30.31S
OSCEOLA        CLEAR     25  25  99 CALM      30.34R
$$

WIZ003>005-009-010-017-018-180600-
NORTH CENTRAL WISCONSIN

CITY           SKY/WX    TMP DP  RH WIND       PRES   REMARKS
WOODRUFF       CLOUDY    32  28  86 NW3       30.27S
RHINELANDER    CLOUDY    32  25  75 NW5       30.27S WCI  27
EAGLE RIVER    CLOUDY    31  23  71 NW9       30.25S WCI  23
LAND O LAKES   CLOUDY    31  25  79 NW8       30.26S WCI  24
PHILLIPS       CLOUDY    32  25  76 NW3       30.28S
TOMAHAWK       CLOUDY    32  26  77 CALM      30.28S
MEDFORD        CLOUDY    32  24  73 N3        30.28F
MERRILL        CLOUDY    33  26  77 CALM      30.28F
$$

WIZ029-030-035-036-043>047-180600-
CENTRAL WISCONSIN

CITY           SKY/WX    TMP DP  RH WIND       PRES   REMARKS
WAUSAU         CLOUDY    34  26  72 NW6       30.27S WCI  29
MOSINEE        CLOUDY    32  30  93 N7        30.29F WCI  26
MARSHFIELD     CLOUDY    34  26  72 N6        30.29S WCI  29
STEVENS POINT  CLOUDY    33  27  76 NW7       30.29F WCI  27
WAUPACA        CLOUDY    39  30  70 NW6       30.30R WCI  35
WAUTOMA        CLOUDY    37  29  73 N6        30.29F WCI  32
WISC RAPIDS    CLOUDY    36  27  69 N7        30.31S WCI  30
CAMP DOUGLAS   CLOUDY    36  30  78 NW6       30.30S WCI  32
$$

WIZ011>013-019>022-031-037>040-048>050-180600-
NORTHEAST WISCONSIN

CITY           SKY/WX    TMP DP  RH WIND       PRES   REMARKS
ANTIGO         CLOUDY    32  26  79 N7        30.27S WCI  25
STURGEON BAY   CLOUDY    37  30  75 N6        30.27S WCI  33
GREEN BAY      CLOUDY    37  33  85 W6        30.28S WCI  32
MANITOWOC      CLOUDY    42  34  73 N5        30.28R
APPLETON       CLEAR     32  30  93 W7        30.29R WCI  26
CLINTONVILLE   CLOUDY    37  30  75 NW8       30.29R WCI  31
OSHKOSH        CLEAR     35  30  82 NW3       30.28R
$$

WIZ032>034-041-042-053>061-180600-
SOUTHWEST WISCONSIN

CITY           SKY/WX    TMP DP  RH WIND       PRES   REMARKS
LA CROSSE      CLOUDY    39  27  62 N6        30.32S WCI  35
SPARTA         CLOUDY    37  29  71 N6        30.32S WCI  32
VIROQUA        FAIR      34  29  83 N5        30.28S WCI  30
BOSCOBEL       CLEAR     32  28  85 CALM      30.31F
PRAIRIE DU CHI CLEAR     32  28  86 CALM      30.31S
PLATTEVILLE    FAIR      35  31  86 N6        30.30S WCI  30
$$

WIZ056-057-062-063-064-067-068-180600-
SOUTH CENTRAL WISCONSIN

CITY           SKY/WX    TMP DP  RH WIND       PRES   REMARKS
BARABOO/DELLS  CLEAR     32  29  88 CALM      30.29S
LONE ROCK      CLEAR     37  30  75 CALM      30.30F
WATERTOWN      PTCLDY    37  32  84 N6        30.28R WCI  32
MADISON        CLEAR     36  31  82 N5        30.29S WCI  32
MIDDLETON      FAIR      35  33  90 CALM      30.29R
MONROE         CLEAR     38  38 100 N8        30.27R WCI  32
JANESVILLE     MOCLDY    43  34  70 N8        30.27R
$$

WIZ051-052-058>065-066-070>072-180600-
SOUTHEAST WISCONSIN

CITY           SKY/WX    TMP DP  RH WIND       PRES   REMARKS
MILWAUKEE      CLOUDY    45  36  70 N6        30.27R
WAUKESHA       CLOUDY    39  34  81 NW6       30.27S WCI  35
MILWAUKEE/TIMM CLOUDY    43  34  70 N8        30.27R
RACINE         CLOUDY    40  36  86 N6        30.27R
BURLINGTON     CLOUDY    42  37  80 N9        30.25R
KENOSHA        MOCLDY    43  36  76 CALM      30.25R
FOND DU LAC    CLEAR     35  30  82 NW5       30.28S WCI  31
SHEBOYGAN      MOCLDY    39  35  86 NW5       30.27R
WEST BEND      MOCLDY    37  32  81 N6        30.26S WCI  33
JUNEAU         PTCLDY    35  32  88 NW3       30.29R
$$

LSZ147-162-180600-
LAKE SUPERIOR

STATION/POSITION TIME  TEMP    WIND        PRES    WAVE
                       AIR SEA DIR/SP/G            HT/PER
                 (UTC) (F)     (DEG/KT/KT) (MB)    (FT/S)
DEVILS ISLAND    0500   33     290/ 10/ 11 1027.7R
PORT WING        0400   30     150/  2/  2 1026.8R
SAXON HARBOR     0400           CALM  /  3 1026.4R
$$

LMZ867-665-643>646-180600-
LAKE MICHIGAN

STATION/POSITION TIME  TEMP    WIND        PRES    WAVE
                       AIR SEA DIR/SP/G            HT/PER
                 (UTC) (F)     (DEG/KT/KT) (MB)    (FT/S)
NORTHPORT PIER   0400   36     240/  3/  4 1024.7R
SISTER BAY       0423   35        CALM       N/A
KEWAUNEE LAKESHO 0500   40     300/  4/  4 1025.4F
SHEBOYGAN LAKESH 0500   41     360/  9/ 10 1025.8R
PORT WASHINGTON  0400   44     320/  7/ 12 1025.1S
MILWAUKEE LAKESH 0500   46     340/  8/ 10   N/A
KENOSHA   LAKESH 0500   45     210/  3/  5   N/A
$$

TC  - TEMPERATURE IN CELSIUS
VSB - VISIBILITY IN STATUTE MILES
WCI - WIND CHILL INDEX
HX  - HEAT INDEX




USA.gov is the U.S. government's official web portal to all federal, state and local government web resources and services.